CAPE
9 15 9 6 0 0 0 0 0 0 0 1 0 0 0 0 0 0 0 0 0 0 0 0 0 0 0 0 0 0 0 0 0 0 0 0 0 0 0 0 0 29 13 35 8
3 1 6 6 3 1 0 0 0 0 0 0 0 0 0 0 0 0 0 0 0 0 0 0 0 0 0 0 0 0 0 0 0 0 0 0 0 0 0 0 0 2 23 15 1
0 0 0 0 0 0 1 0 0 0 0 0 0 0 0 0 0 0 0 0 0 0 0 0 0 0 0 0 0 0 0 0 0 0 0 0 0 0 0 0 0 0 0 8 5
0 0 0 0 0 0 0 0 0 0 0 0 0 0 0 0 0 0 0 0 0 0 0 0 0 0 0 0 0 0 0 0 0 0 0 0 0 0 0 0 0 0 0 2 7
0 0 0 0 0 0 0 0 0 0 0 0 0 0 0 0 0 0 0 0 0 0 0 0 0 0 0 0 0 0 0 0 0 0 0 0 0 0 0 0 0 0 0 1 2
0 0 0 0 0 0 0 0 0 0 0 0 0 5 0 0 0 0 0 0 0 0 0 0 0 0 0 0 0 0 0 0 0 0 0 0 0 0 0 0 0 0 0 1 5
1 0 0 0 0 0 0 0 0 0 0 0 0 3 0 0 0 0 0 0 0 0 0 0 0 0 0 0 0 0 0 0 0 0 0 0 0 0 0 0 0 0 0 4 4
1 0 0 0 0 0 0 0 0 0 0 0 0 3 0 0 0 0 0 0 0 0 0 0 0 0 0 0 0 0 0 0 0 0 0 0 0 0 0 0 0 0 0 0 1
6 5 1 0 0 0 0 0 0 0 0 0 0 0 0 0 0 0 0 0 0 0 0 0 0 0 0 0 0 0 0 0 0 0 0 0 0 0 0 0 0 0 0 0 0
0 4 8 4 0 0 0 0 0 0 0 4 3 0 0 0 0 0 0 0 0 0 0 0 0 0 0 0 0 0 0 0 0 0 0 0 0 0 0 0 0 0 0 0 0
0 5 0 0 0 0 0 0 0 0 0 0 0 0 0 0 0 0 0 0 0 0 0 0 0 0 0 0 0 0 0 0 0 0 0 0 0 0 0 0 0 0 0 0 8
2 4 0 1 0 2 0 0 0 0 0 0 0 0 0 0 0 0 0 0 0 0 0 0 0 0 0 0 0 0 0 0 0 0 0 0 0 0 0 0 0 0 5 1 45
12 6 4 2 0 0 0 0 0 0 0 0 0 0 0 0 0 0 0 0 0 0 0 0 0 0 0 0 0 0 0 0 0 0 0 0 0 0 0 0 0 0 0 2 27
13 3 11 14 0 0 0 0 0 0 0 0 0 0 0 0 0 0 0 0 0 0 0 0 0 0 0 0 0 0 0 0 0 0 0 0 0 0 0 0 0 0 0 0 27
11 8 10 20 0 0 0 0 0 0 0 0 0 0 0 0 0 0 0 0 0 0 0 0 0 0 0 0 0 0 0 0 0 0 0 0 0 0 0 0 0 0 0 0 4
8 13 5 14 0 0 0 0 0 0 0 0 0 0 0 0 0 0 0 0 0 0 0 0 0 0 0 0 0 0 0 0 0 0 0 0 0 0 0 0 0 0 0 0 0
0 11 12 41 2 0 0 0 0 0 0 0 0 0 0 0 0 0 0 0 0 0 0 0 0 0 0 0 0 0 0 0 0 0 0 0 0 0 0 0 0 0 0 0 0
0 6 5 19 0 0 0 0 0 0 0 0 0 0 0 0 0 0 0 0 0 0 0 0 0 0 0 0 0 0 0 0 0 0 0 0 0 0 0 0 0 0 0 0 0
5 2 3 3 4 0 0 0 0 0 0 0 0 0 0 0 0 0 0 0 0 0 0 0 0 0 0 0 0 0 0 0 0 0 0 0 0 0 0 0 0 0 0 0 0
2 8 0 25 17 1 1 0 0 0 0 0 0 0 0 0 0 0 0 0 0 0 0 0 0 0 0 0 0 0 0 0 0 0 0 0 0 0 0 0 0 0 0 0 0
16 26 1 34 27 7 2 1 0 0 0 0 0 0 0 0 0 0 0 0 0 0 0 0 0 0 0 0 0 0 0 0 0 0 0 0 0 0 0 0 0 0 0 0 0
16 19 8 58 13 0 0 0 0 0 0 0 0 0 0 0 0 0 0 0 0 0 0 0 0 0 0 0 0 0 0 0 0 0 0 0 0 0 0 0 0 0 0 0 0
14 14 28 68 1 0 4 0 0 0 0 0 0 0 0 0 0 0 0 0 0 0 0 0 2 0 0 0 0 0 0 0 0 0 0 0 0 0 0 0 0 0 0 0 0
21 8 25 67 1 1 8 0 0 0 0 0 0 0 0 0 0 0 0 0 0 0 0 0 0 2 0 0 0 0 0 0 0 0 0 0 0 0 0 0 0 0 0 0 0
0 0 1 2 0 0 16 5 1 6 0 0 0 0 0 0 0 0 0 0 0 0 0 0 0 0 0 0 0 0 0 0 0 0 0 0 0 0 0 0 0 0 0 0 0
0 4 0 0 3 1 4 2 5 0 0 0 0 0 0 0 0 0 0 0 0 0 0 4 0 0 0 0 0 0 0 0 0 0 0 0 0 0 0 0 0 0 0 0 0
7 0 5 0 1 2 0 0 0 0 0 0 0 0 0 0 0 0 0 0 0 0 0 0 0 0 0 0 0 0 0 0 0 0 0 0 0 0 0 0 0 0 0 0 0
CIN
-5 -4 -2 -1 -3 -0 -0 -0 -0 -0 -0 -0 -0 -0 -0 -0 -0 -0 -0 -0 -0 -0 -0 -0 -0 -0 -0 -0 -0 -0 -0 -0 -0 -0 -0 -0 -0 -0 -0 -0 -0 -240 -179 -347 -499
-4 -4 -4 -2 -3 -1 -0 -0 -0 -0 -0 -0 -0 -0 -0 -0 -0 -0 -0 -0 -0 -0 -0 -0 -0 -0 -0 -0 -0 -0 -0 -0 -0 -0 -0 -0 -0 -0 -0 -0 -0 -90 -376 -488 -275
-0 -0 -0 -0 -0 -0 -3 -0 -0 -0 -0 -0 -0 -0 -0 -0 -0 -0 -0 -0 -0 -0 -0 -0 -0 -0 -0 -0 -0 -0 -0 -0 -0 -0 -0 -0 -0 -0 -0 -0 -0 -0 -0 -419 -468
-0 -0 -0 -0 -0 -0 -0 -0 -0 -0 -0 -0 -0 -0 -0 -0 -0 -0 -0 -0 -0 -0 -0 -0 -0 -0 -0 -0 -0 -0 -0 -0 -0 -0 -0 -0 -0 -0 -0 -0 -0 -0 -0 -275 -441
-0 -0 -0 -0 -0 -0 -0 -0 -0 -0 -0 -0 -0 -0 -0 -0 -0 -0 -0 -0 -0 -0 -0 -0 -0 -0 -0 -0 -0 -0 -0 -0 -0 -0 -0 -0 -0 -0 -0 -0 -0 -0 -0 -235 -393
-3 -0 -0 -0 -0 -0 -0 -0 -0 -0 -0 -0 -0 -0 -0 -0 -0 -0 -0 -0 -0 -0 -0 -0 -0 -0 -0 -0 -0 -0 -0 -0 -0 -0 -0 -0 -0 -0 -0 -0 -0 -0 -0 -156 -379
-4 -0 -0 -0 -0 -0 -0 -0 -0 -0 -0 -0 -0 -0 -0 -0 -0 -0 -0 -0 -0 -0 -0 -0 -0 -0 -0 -0 -0 -0 -0 -0 -0 -0 -0 -0 -0 -0 -0 -0 -0 -0 -0 -246 -348
-3 -0 -0 -0 -0 -0 -0 -0 -0 -0 -0 -0 -0 -0 -0 -0 -0 -0 -0 -0 -0 -0 -0 -0 -0 -0 -0 -0 -0 -0 -0 -0 -0 -0 -0 -0 -0 -0 -0 -0 -0 -0 -0 -0 -0
-2 -2 -3 -0 -0 -0 -0 -0 -0 -0 -0 -0 -0 -0 -0 -0 -0 -0 -0 -0 -0 -0 -0 -0 -0 -0 -0 -0 -0 -0 -0 -0 -0 -0 -0 -0 -0 -0 -0 -0 -0 -0 -0 -0 -0
-1 -3 -3 -3 -0 -0 -0 -0 -0 -0 -0 -0 -1 -0 -0 -0 -0 -0 -0 -0 -0 -0 -0 -0 -0 -0 -0 -0 -0 -0 -0 -0 -0 -0 -0 -0 -0 -0 -0 -0 -0 -0 -0 -0 -0
-0 -3 -0 -0 -0 -0 -0 -0 -0 -0 -0 -0 -0 -0 -0 -0 -0 -0 -0 -0 -0 -0 -0 -0 -0 -0 -0 -0 -0 -0 -0 -0 -0 -0 -0 -0 -0 -0 -0 -0 -0 -0 -0 -0 -319
-1 -4 -0 -7 -0 -0 -0 -0 -0 -0 -0 -0 -0 -0 -0 -0 -0 -0 -0 -0 -0 -0 -0 -0 -0 -0 -0 -0 -0 -0 -0 -0 -0 -0 -0 -0 -0 -0 -0 -0 -0 -0 -282 -84 -272
-3 -6 -8 -5 -7 -0 -0 -0 -0 -0 -0 -0 -0 -0 -0 -0 -0 -0 -0 -0 -0 -0 -0 -0 -0 -0 -0 -0 -0 -0 -0 -0 -0 -0 -0 -0 -0 -0 -0 -0 -0 -0 -0 -176 -245
-3 -10 -8 -5 -0 -0 -0 -0 -0 -0 -0 -0 -0 -0 -0 -0 -0 -0 -0 -0 -0 -0 -0 -0 -0 -0 -0 -0 -0 -0 -0 -0 -0 -0 -0 -0 -0 -0 -0 -0 -0 -0 -0 -0 -272
-4 -12 -8 -3 -0 -0 -0 -0 -0 -0 -0 -0 -0 -0 -0 -0 -0 -0 -0 -0 -0 -0 -0 -0 -0 -0 -0 -0 -0 -0 -0 -0 -0 -0 -0 -0 -0 -0 -0 -0 -0 -0 -0 -0 -240
-6 -15 -10 -3 -0 -9 -0 -0 -0 -0 -0 -0 -0 -0 -0 -0 -0 -0 -0 -0 -0 -0 -0 -0 -0 -0 -0 -0 -0 -0 -0 -0 -0 -0 -0 -0 -0 -0 -0 -0 -0 -0 -0 -0 -0
-2 -11 -10 -1 -0 -0 -0 -0 -0 -0 -0 -0 -0 -0 -0 -0 -0 -0 -0 -0 -0 -0 -0 -0 -0 -0 -0 -0 -0 -0 -0 -0 -0 -0 -0 -0 -0 -0 -0 -0 -0 -0 -0 -0 -0
-1 -5 -13 -2 -1 -0 -0 -0 -0 -0 -0 -0 -0 -0 -0 -0 -0 -0 -0 -0 -0 -0 -0 -0 -0 -0 -0 -0 -0 -0 -0 -0 -0 -0 -0 -0 -0 -0 -0 -0 -0 -0 -0 -0 -0
-5 -0 -0 -25 -21 -0 -0 -0 -0 -0 -0 -0 -0 -0 -0 -0 -0 -0 -0 -0 -0 -0 -0 -0 -0 -0 -0 -0 -0 -0 -0 -0 -0 -0 -0 -0 -0 -0 -0 -0 -0 -0 -0 -0 -0
-0 -2 -1 -31 -29 -2 -5 -0 -0 -0 -0 -0 -0 -0 -0 -0 -0 -0 -0 -0 -0 -0 -0 -0 -0 -0 -0 -0 -0 -0 -0 -0 -0 -0 -0 -0 -0 -0 -0 -0 -0 -0 -0 -0 -0
-0 -0 -0 -32 -14 -5 -0 -0 -0 -0 -0 -0 -0 -0 -0 -0 -0 -0 -0 -0 -0 -0 -0 -0 -0 -0 -0 -0 -0 -0 -0 -0 -0 -0 -0 -0 -0 -0 -0 -0 -0 -0 -0 -0 -0
-0 -1 -8 -30 -0 -0 -0 -0 -4 -0 -0 -0 -0 -0 -0 -0 -0 -0 -0 -0 -0 -0 -0 -0 -0 -0 -0 -0 -0 -0 -0 -0 -0 -0 -0 -0 -0 -0 -0 -0 -0 -0 -0 -0 -0
-0 -0 -4 -4 -0 -0 -4 -0 -0 -0 -0 -0 -0 -0 -0 -0 -0 -0 -0 -0 -0 -0 -0 -0 -1 -0 -0 -0 -0 -0 -0 -0 -0 -0 -0 -0 -0 -0 -0 -0 -0 -0 -0 -0 -0
-0 -1 -0 -0 -0 -1 -0 -0 -0 -3 -0 -0 -0 -0 -0 -0 -0 -0 -0 -0 -0 -0 -0 -0 -0 -4 -0 -0 -0 -0 -0 -0 -0 -0 -0 -0 -0 -0 -0 -0 -0 -0 -0 -0 -0
-0 -0 -2 -0 -0 -0 -1 -3 -1 -3 -0 -0 -0 -0 -0 -0 -0 -0 -0 -0 -0 -0 -0 -0 -0 -0 -0 -0 -0 -0 -0 -0 -0 -0 -0 -0 -0 -0 -0 -0 -0 -0 -0 -0 -0
-0 -3 -0 -0 -1 -0 -0 -1 -0 -1 -0 -0 -0 -0 -0 -0 -0 -0 -0 -0 -0 -0 -0 -0 -0 -0 -0 -0 -0 -0 -0 -0 -0 -0 -0 -0 -0 -0 -0 -0 -0 -0 -0 -0 -0
-0 -0 -0 -0 -13 -3 -0 -0 -0 -0 -0 -0 -0 -0 -0 -0 -0 -0 -0 -0 -0 -0 -0 -0 -0 -1 -0 -0 -0 -0 -0 -0 -0 -0 -0 -0 -0 -0 -0 -0 -0 -0 -0 -0 -0
Wind_Speed
31 33 32 32 32 31 32 32 33 34 35 37 38 38 39 39 40 31 29 21 17 14 10 9 10 10 10 10 10 9 14 16 15 13 11 10 19 15 16 12 11 11 8 16 16
34 35 35 35 35 33 32 32 32 34 35 37 38 39 40 40 34 34 25 26 17 7 9 7 9 7 10 10 10 9 13 14 12 10 10 13 17 16 15 13 9 10 9 13 15
31 33 34 36 36 35 35 34 34 34 36 37 38 38 40 37 31 23 26 24 12 5 11 12 9 9 12 12 10 11 12 12 11 8 11 15 15 13 14 13 5 8 6 11 11
32 33 34 34 34 34 35 35 35 35 35 37 38 38 39 27 29 19 22 18 13 12 12 11 10 12 14 13 11 16 10 9 14 11 13 12 15 12 13 8 17 13 12 10 10
34 34 35 35 35 35 35 35 36 36 36 37 36 36 29 28 27 25 23 19 16 15 15 13 13 14 15 13 13 16 15 12 12 13 11 11 7 9 9 6 15 15 13 9 8
34 35 36 36 35 36 36 36 35 35 35 35 34 33 28 36 25 21 23 22 20 19 19 16 16 15 18 16 15 17 17 18 18 14 10 8 7 14 8 8 7 11 10 8 6
35 35 36 37 37 37 37 37 37 38 37 35 32 31 32 31 24 25 28 24 20 22 25 21 19 18 17 20 19 22 26 30 25 8 8 7 10 7 6 12 7 4 8 8 6
35 35 35 36 37 38 38 39 40 41 40 34 29 27 38 29 28 34 33 35 30 29 25 25 22 22 21 20 21 21 22 25 21 17 13 6 10 6 15 11 7 3 7 7 4
35 35 34 34 36 38 38 39 43 39 33 22 23 25 39 26 24 24 22 28 23 23 22 22 19 21 19 22 27 23 27 22 26 17 15 8 13 11 15 12 7 3 4 4 3
36 36 35 35 35 36 37 42 35 24 21 16 21 28 30 26 21 18 18 22 22 17 19 22 21 23 22 16 19 24 23 22 19 19 15 16 6 12 13 12 6 2 2 2 3
35 35 35 35 35 35 36 29 27 28 25 26 25 28 27 24 23 19 16 21 18 19 24 24 26 24 16 19 24 22 23 24 23 18 21 12 8 6 16 14 7 3 1 1 2
34 33 33 34 34 32 29 26 23 29 38 32 33 36 37 29 31 25 20 23 23 24 21 25 33 23 23 22 23 27 29 31 34 28 16 26 31 13 11 10 6 0 2 2 2
32 32 32 33 30 28 26 23 22 30 32 33 27 30 30 25 34 30 22 21 23 28 27 27 29 23 24 25 24 27 28 37 34 29 29 23 9 12 16 12 10 2 5 3 5
32 31 30 29 27 23 24 20 25 23 34 32 26 24 20 19 29 28 31 29 26 29 28 32 30 25 23 25 21 33 27 35 35 30 24 20 27 16 19 10 7 4 3 7 10
35 32 30 23 23 23 21 22 26 22 36 22 20 17 17 19 25 22 18 26 37 32 26 29 26 27 29 26 20 31 26 27 25 21 30 19 24 21 16 12 4 2 6 7 12
35 34 31 25 23 23 24 26 23 26 34 22 18 18 22 21 22 19 18 20 23 38 35 33 26 23 26 24 19 25 22 22 22 23 33 9 19 26 15 10 5 3 5 3 11
34 32 31 24 24 21 18 19 25 30 24 23 24 24 26 22 21 21 18 19 24 27 36 37 40 30 24 23 19 21 18 26 28 27 33 17 15 10 15 12 3 18 25 10 8
33 32 30 28 20 16 17 22 31 26 26 24 23 24 22 22 22 21 20 22 23 23 26 30 36 29 27 28 26 25 27 28 31 33 34 20 22 16 13 10 16 22 29 15 1
33 31 29 26 19 18 20 31 31 28 26 26 26 26 26 22 23 22 21 23 23 23 25 25 30 26 25 27 24 27 31 23 33 29 31 25 25 27 19 20 26 25 27 26 4
30 30 32 22 15 19 28 35 31 24 23 24 28 25 26 26 25 23 21 21 23 23 25 26 32 25 23 24 28 28 19 25 28 32 34 28 28 19 19 19 27 27 24 19 12
30 32 27 17 15 27 38 34 31 29 25 27 28 30 28 29 27 27 26 22 24 25 20 26 28 26 23 24 24 28 32 27 27 31 34 33 29 17 19 19 23 25 22 14 5
28 37 22 13 33 32 40 32 26 24 28 29 26 28 28 30 31 30 30 27 24 24 26 25 27 35 35 24 24 28 29 31 33 30 33 36 36 19 17 21 26 25 19 13 11
31 35 27 21 40 43 31 34 30 27 27 25 28 25 23 27 30 27 29 24 23 24 25 26 28 34 33 36 32 31 29 33 38 36 38 34 31 20 23 25 21 21 20 19 13
29 35 33 31 34 39 37 34 32 27 29 25 26 24 26 27 25 28 27 25 27 31 25 22 28 32 37 33 31 34 31 29 29 38 44 45 36 27 24 25 28 29 27 25 19
24 32 29 32 34 34 33 32 34 32 26 25 31 26 24 28 29 31 31 33 33 34 24 26 36 36 39 42 42 43 38 33 34 35 37 38 37 35 30 31 30 31 31 29 25
19 26 25 37 28 27 31 35 32 27 25 27 27 23 26 33 32 36 31 28 26 22 23 25 32 32 40 38 42 46 43 41 37 36 38 36 40 34 33 35 34 37 35 34 32
16 25 27 33 25 27 28 27 26 24 27 26 23 23 27 30 31 35 33 32 31 33 33 29 27 27 36 36 43 39 43 37 38 38 36 43 38 33 33 36 40 37 36 36 36
Wind_Direction
320 318 319 319 321 322 321 321 321 320 317 315 316 315 311 308 303 314 307 311 317 313 321 325 320 326 330 337 347 357 334 327 334 338 346 8 351 5 1 1 2 360 2 342 345
316 314 313 314 316 318 320 321 321 318 316 314 313 311 309 307 310 306 309 299 301 311 313 301 306 319 319 327 335 331 325 326 340 344 341 346 346 353 356 358 352 350 351 349 345
319 317 315 312 311 312 315 316 316 317 314 313 311 310 307 307 310 311 316 306 292 293 306 305 311 311 308 321 319 324 311 322 331 343 338 337 340 351 350 347 328 336 342 342 345
316 315 315 315 315 314 313 313 313 314 314 312 311 310 306 312 299 315 313 320 309 291 299 298 302 299 304 303 313 313 317 316 329 328 330 331 336 339 337 319 340 340 346 346 346
314 313 312 313 313 314 314 313 313 312 311 309 310 312 311 302 295 301 302 305 306 292 287 291 292 297 299 312 307 308 315 318 319 322 322 330 285 321 278 270 336 336 340 347 356
314 312 311 311 312 313 313 313 313 312 311 308 307 309 304 292 304 303 299 293 287 287 284 286 295 296 305 306 301 315 317 317 320 323 323 309 313 338 259 338 339 335 337 353 8
311 311 311 311 310 310 310 310 310 308 307 305 304 304 295 291 300 294 292 288 289 284 279 284 288 295 304 304 304 306 305 302 308 269 298 325 325 318 329 359 2 354 343 353 6
312 312 312 312 311 310 308 307 306 305 304 302 301 299 290 300 299 286 283 278 278 275 278 282 284 284 288 300 304 306 310 308 323 339 347 355 331 350 354 4 2 13 345 349 12
311 312 313 314 313 312 310 308 304 304 306 306 301 297 293 304 299 297 286 277 281 276 270 283 279 281 286 284 289 298 294 304 310 328 331 334 337 352 354 2 8 37 13 359 23
308 308 309 311 312 313 313 307 308 314 319 314 304 296 292 291 299 305 298 283 280 275 267 267 274 273 275 274 275 286 293 303 313 324 327 321 249 227 348 357 359 12 38 15 17
307 309 310 308 309 312 315 317 310 304 305 293 294 291 295 301 298 294 294 284 280 270 260 261 261 256 236 268 283 289 291 297 305 317 319 317 241 248 338 343 349 3 93 123 11
307 309 309 309 310 314 315 310 313 308 297 292 288 281 281 291 284 283 284 276 269 267 264 264 259 264 278 277 275 280 284 279 285 302 316 312 250 287 325 338 345 330 162 162 72
305 307 308 308 312 315 314 306 312 315 297 296 296 290 286 275 273 273 277 277 272 264 260 263 274 266 268 274 274 276 279 275 284 298 304 316 286 323 330 339 342 20 157 152 153
301 303 306 307 309 314 311 316 309 318 294 290 293 295 300 291 281 274 264 264 270 265 265 268 265 273 270 269 269 273 282 278 283 293 304 318 310 320 320 329 335 345 149 165 164
294 297 300 303 307 305 312 307 304 310 282 301 296 308 304 291 294 291 280 262 257 262 265 268 272 266 267 271 270 275 283 284 287 291 293 306 308 324 333 332 221 210 177 171 170
290 290 292 295 294 295 297 297 299 287 274 295 299 298 302 292 291 301 296 279 278 260 263 267 276 276 274 272 268 283 282 289 292 291 282 255 302 310 325 341 27 74 1 177 172
288 287 285 286 288 296 299 291 283 274 291 288 285 291 290 291 290 290 292 279 274 268 261 263 263 269 275 273 272 267 276 278 280 279 282 304 295 258 328 335 321 220 237 327 156
285 284 281 278 277 293 292 274 269 279 280 287 287 289 289 291 290 295 289 283 279 278 277 265 264 260 261 262 267 262 264 268 277 280 286 292 294 309 326 336 324 301 249 312 103
283 282 277 275 269 271 270 260 269 273 281 281 282 281 283 291 291 293 292 286 287 276 275 278 273 275 269 261 254 265 260 266 274 283 286 286 297 294 307 310 298 293 279 267 292
280 277 270 271 256 260 261 260 265 278 284 283 277 287 284 288 292 294 294 296 287 300 275 281 274 279 279 266 261 261 267 265 263 271 274 283 289 300 312 313 298 288 289 285 287
277 271 273 256 250 253 253 258 266 269 280 280 279 280 285 285 288 284 286 289 301 302 303 281 276 278 278 271 265 259 258 265 268 265 271 279 285 306 304 305 301 294 292 301 271
274 264 269 243 247 256 253 254 272 279 273 277 285 283 286 287 284 283 279 285 303 304 291 298 282 270 269 279 281 268 260 254 261 266 269 272 270 297 303 307 297 291 294 301 289
270 265 268 244 250 250 261 260 259 270 274 281 276 283 290 289 284 287 286 293 299 302 292 297 282 275 275 270 272 268 267 263 260 266 265 269 276 286 285 291 298 287 289 292 298
268 262 258 250 255 252 250 259 258 264 272 278 281 283 284 286 287 286 287 290 291 290 294 292 280 274 271 273 280 266 265 266 258 260 263 264 273 278 286 287 283 277 279 285 289
256 262 254 252 243 250 252 259 259 262 266 272 273 276 284 283 286 281 283 283 287 286 284 282 273 276 275 277 272 266 265 264 260 262 262 269 270 272 278 280 282 277 279 280 280
242 257 258 251 256 246 247 252 255 258 263 266 269 279 275 278 279 280 282 283 282 282 291 293 277 278 278 279 276 264 262 262 264 263 266 271 271 277 278 276 277 274 273 274 272
218 254 253 252 256 249 249 245 250 256 263 263 269 273 277 277 280 276 278 276 273 274 278 284 281 280 275 291 283 262 256 261 262 263 267 267 275 281 280 275 272 279 275 273 266